Wind_Speed
14 14 14 14 12 11 11 9 8 7 6 5 5 4 3 4 4 4 4 3 3 2 2 2 2 1 1 2 2 2 2 3 3 2 2 2 2 2 2 3 3 4 5 5
14 15 15 14 14 12 11 10 9 8 7 6 5 5 5 5 6 6 6 6 5 5 4 4 3 3 3 3 3 3 3 3 3 3 3 2 3 3 4 4 4 5 6 6
16 16 15 15 15 14 12 12 11 9 8 8 7 7 7 7 7 7 7 8 7 7 7 6 5 5 5 4 4 4 3 4 5 4 4 4 4 4 5 6 6 7 7 7
18 18 16 15 16 15 13 13 12 10 9 9 9 7 8 8 8 7 7 8 8 9 9 8 8 7 6 6 5 5 5 5 6 6 6 5 5 6 6 7 8 8 8 8
19 19 18 17 17 16 16 15 14 12 11 11 10 8 10 9 9 9 8 8 9 9 10 10 9 9 8 8 7 7 7 6 7 7 7 7 7 7 8 9 9 10 10 10
20 19 18 18 17 17 16 14 14 13 12 12 11 9 10 10 10 10 10 10 9 10 10 10 10 10 9 9 9 9 9 8 8 9 8 9 9 9 10 11 11 11 11 12
19 19 19 19 18 18 16 14 13 13 13 14 13 11 11 10 10 10 10 10 10 11 11 10 10 10 11 11 11 11 12 11 11 11 11 11 11 11 12 12 12 12 13 13
20 20 20 20 20 20 18 17 16 15 14 14 15 14 12 12 11 11 11 10 10 10 11 11 12 12 13 13 13 13 13 13 13 13 12 13 13 13 14 14 14 15 15 15
21 22 21 20 20 21 20 19 18 17 16 15 16 15 14 13 12 12 12 12 11 12 12 12 13 13 14 14 14 14 15 15 15 14 14 14 15 15 15 16 16 17 17 17
22 22 21 21 21 21 21 21 20 19 18 16 16 16 15 14 13 13 13 13 14 14 14 14 14 15 15 15 16 16 16 17 17 16 16 16 16 16 17 17 18 19 19 18
22 21 22 21 22 22 21 22 22 21 20 18 16 17 16 16 15 15 15 15 16 15 15 15 15 15 16 17 18 18 19 19 19 19 19 19 19 19 18 19 20 21 21 21
22 21 21 22 22 22 22 23 23 21 21 20 18 18 18 17 16 16 16 17 17 17 17 16 16 16 18 18 19 20 21 21 21 21 20 21 21 21 20 21 21 21 21 22
23 22 21 20 21 23 23 23 24 23 22 22 20 20 20 19 17 17 17 18 18 18 18 18 18 19 20 21 21 21 22 22 22 22 22 22 22 23 23 22 21 21 22 22
22 22 22 20 20 21 23 24 24 24 23 23 22 22 23 21 20 19 19 19 19 20 20 20 21 22 23 23 23 23 24 24 24 24 24 23 24 25 25 24 23 23 23 23
23 23 23 23 22 22 23 24 25 25 25 24 24 24 23 23 22 21 21 20 20 21 22 23 23 24 25 25 25 25 25 26 25 24 25 24 25 25 25 25 25 25 25 25
26 25 25 24 23 23 23 24 25 25 25 25 25 25 24 23 23 22 22 22 23 23 24 25 25 25 26 26 26 26 26 26 26 26 26 26 26 26 27 27 27 27 26 26
28 27 26 25 25 25 25 24 24 24 25 25 25 25 23 23 23 23 23 24 25 25 25 26 26 27 27 27 26 26 27 27 27 28 27 27 27 28 28 29 29 28 28 28
29 29 28 26 27 27 26 25 25 25 25 25 25 25 25 24 24 24 24 24 25 26 26 26 26 26 26 27 28 29 28 28 28 28 28 28 28 29 29 29 29 30 29 28
30 30 29 28 28 27 27 26 25 25 25 26 26 26 26 26 25 24 24 25 26 27 27 27 27 27 28 28 28 29 29 29 29 30 30 30 30 30 30 30 30 30 30 28
32 31 31 30 29 28 27 27 26 26 27 26 26 27 27 27 27 27 26 26 27 28 27 27 28 29 29 29 29 28 29 30 30 30 30 30 31 31 31 31 31 31 30 30
33 33 33 32 31 30 30 28 27 28 28 27 27 28 28 28 28 27 27 28 28 29 28 28 28 29 28 28 28 29 30 31 32 32 32 32 32 31 31 31 31 31 31 31
32 33 34 34 33 32 31 30 30 30 29 29 29 29 29 28 29 28 27 27 28 28 28 28 28 28 28 28 29 29 30 31 32 32 33 32 32 32 32 31 31 32 32 32
33 33 33 34 34 34 33 33 32 32 31 30 30 30 29 29 30 29 28 28 28 28 29 29 29 29 29 29 30 30 30 31 31 33 33 34 34 34 34 34 34 34 34 33
33 33 33 33 34 34 33 32 32 32 32 30 30 29 29 29 29 30 29 29 29 29 29 30 29 29 29 30 30 31 31 31 31 33 34 35 35 36 35 35 35 35 35 34
31 31 31 32 33 33 33 32 32 31 31 30 30 30 30 30 30 31 31 30 30 30 31 31 32 31 31 31 32 32 32 32 32 33 34 34 34 35 35 36 36 35 35 35
30 30 30 31 32 33 33 32 32 31 31 32 31 30 30 30 30 30 31 30 30 30 31 31 32 32 33 33 32 32 32 32 33 33 34 34 34 34 34 35 35 34 34 34
Wind_Direction
220 221 219 218 217 217 218 219 223 229 234 230 232 241 248 249 255 257 253 260 264 272 286 291 306 315 316 332 340 350 357 0 357 360 5 3 354 351 353 353 349 346 342 341
223 224 223 220 219 220 219 221 230 233 237 239 245 255 259 254 257 263 253 254 267 267 269 269 269 291 297 298 310 314 319 331 340 340 338 333 330 330 327 327 328 328 328 331
223 226 224 221 221 223 225 226 230 235 241 248 255 265 266 263 260 264 259 256 262 264 267 269 270 276 284 285 286 286 292 300 309 316 314 312 315 317 314 312 314 317 321 325
222 224 225 223 222 222 228 230 233 239 246 253 256 264 271 269 266 262 262 260 260 261 264 267 270 271 273 281 277 276 284 291 298 300 300 299 303 303 303 302 304 306 312 317
225 224 222 221 223 223 224 230 235 242 249 251 258 258 269 273 273 265 266 268 266 262 261 263 265 269 270 276 281 280 283 288 292 295 294 294 295 297 295 294 295 298 305 310
228 227 224 222 223 224 229 235 240 245 252 254 253 256 266 271 273 267 268 269 268 265 266 266 264 265 267 272 281 286 288 287 288 291 291 293 292 297 300 299 297 297 299 303
228 230 228 225 225 226 229 233 241 247 250 256 254 256 259 267 270 270 269 267 266 265 265 265 264 263 263 266 273 278 284 285 287 288 288 289 293 296 298 299 298 296 297 299
229 233 229 227 226 229 228 228 233 240 247 256 258 258 260 265 270 270 268 266 267 267 266 265 267 268 266 268 270 274 277 280 285 287 286 287 289 292 294 297 299 296 297 298
228 232 233 231 230 231 230 230 234 242 248 253 259 260 265 266 268 271 268 268 269 269 270 269 269 269 268 270 273 274 274 277 282 284 284 285 287 290 293 295 298 298 296 295
229 233 236 237 236 236 235 233 236 240 247 251 259 263 262 267 266 266 265 269 270 269 270 269 271 268 267 270 272 275 277 277 280 281 283 286 288 290 292 292 293 295 295 293
227 231 237 237 236 237 239 238 239 241 245 250 257 263 263 264 263 262 265 266 266 267 270 271 271 271 271 274 273 273 276 276 278 278 281 284 286 287 290 291 294 292 290 290
228 229 235 239 238 236 237 238 240 244 250 252 254 261 265 264 261 260 262 264 264 263 266 266 268 269 271 273 275 273 274 274 275 274 277 281 284 286 288 290 293 294 293 293
231 230 235 241 242 240 239 238 240 242 249 253 254 259 265 265 261 260 262 264 264 264 266 265 267 268 271 273 275 274 274 274 274 273 274 277 280 283 285 288 293 294 294 294
234 232 232 235 240 243 245 242 242 243 246 251 254 257 262 263 261 260 261 264 265 265 266 269 270 269 271 273 274 275 275 275 276 275 274 275 279 282 284 286 289 291 292 293
235 235 236 236 239 243 245 245 245 245 247 249 253 257 261 262 262 261 260 262 264 265 265 268 270 271 273 273 273 276 275 276 277 277 278 277 280 281 283 286 287 288 289 291
237 238 240 242 243 245 247 246 247 248 251 253 254 255 260 261 261 261 261 262 265 265 266 267 270 272 273 273 273 275 276 277 279 280 281 280 281 281 283 284 285 286 288 291
239 241 242 244 246 247 248 247 248 252 253 253 255 255 258 258 261 262 261 262 264 264 267 269 271 272 272 272 273 275 276 276 278 281 283 284 285 284 284 285 284 284 287 289
240 242 243 243 245 247 248 249 249 252 254 253 255 255 257 258 261 262 262 263 262 263 265 267 270 271 272 273 274 275 274 276 278 280 282 285 287 286 285 285 286 285 286 286
240 242 243 243 246 251 250 249 249 252 255 256 257 258 258 259 261 263 263 263 264 264 266 267 269 271 272 273 274 274 275 275 277 279 282 284 286 287 287 286 286 287 286 286
240 242 244 246 247 249 252 252 252 255 257 256 257 258 258 259 262 265 267 267 267 267 267 267 269 271 271 273 274 275 276 276 277 279 281 283 285 286 286 285 284 284 284 283
240 241 243 245 248 250 251 251 252 254 257 258 259 261 260 260 262 265 268 269 268 269 268 267 269 271 270 271 273 275 275 276 276 278 279 281 284 284 285 284 282 283 284 283
242 242 243 245 247 248 250 251 252 255 258 260 262 263 264 263 262 264 266 268 268 269 269 269 270 270 270 272 274 275 276 277 277 277 278 280 281 282 283 282 282 282 282 282
241 242 243 244 246 249 252 253 254 255 258 260 262 263 263 263 262 263 264 268 269 269 269 270 270 271 273 275 277 277 278 279 280 279 279 280 279 280 281 282 282 281 281 281
243 243 244 246 247 249 252 253 254 255 257 259 260 261 261 262 262 263 264 266 268 268 268 270 270 272 274 276 278 279 280 281 282 281 280 280 280 280 280 281 281 280 280 280
246 245 245 246 247 249 251 253 255 255 255 255 257 259 260 262 263 264 264 265 265 266 267 270 271 272 274 276 278 280 282 283 284 282 280 280 281 281 281 280 280 280 280 280
246 245 245 246 247 249 250 253 255 254 253 253 255 256 258 260 262 263 263 264 265 266 268 270 271 274 275 278 278 278 280 283 283 284 283 280 280 281 281 280 281 281 282 281
Height
5910 5913 5915 5917 5919 5920 5922 5923 5924 5925 5925 5925 5925 5925 5924 5924 5924 5924 5924 5923 5923 5923 5922 5922 5921 5920 5920 5919 5918 5917 5916 5915 5914 5914 5912 5912 5911 5910 5908 5907 5906 5905 5904 5903
5908 5910 5913 5914 5916 5918 5920 5921 5923 5924 5924 5924 5924 5924 5924 5923 5923 5923 5923 5922 5922 5922 5922 5921 5921 5920 5920 5919 5918 5917 5916 5915 5914 5913 5912 5911 5910 5909 5908 5907 5906 5905 5903 5902
5905 5908 5909 5911 5913 5916 5918 5919 5921 5921 5922 5922 5923 5923 5923 5922 5922 5921 5921 5921 5921 5921 5921 5920 5920 5919 5919 5918 5917 5916 5916 5915 5914 5913 5912 5911 5910 5909 5908 5907 5905 5904 5903 5901
5901 5904 5906 5908 5910 5913 5915 5917 5918 5919 5920 5921 5922 5923 5922 5920 5920 5920 5920 5920 5920 5920 5920 5919 5919 5918 5918 5917 5916 5915 5914 5914 5913 5912 5911 5910 5909 5908 5907 5906 5904 5903 5902 5900
5898 5900 5903 5905 5908 5910 5912 5913 5915 5916 5918 5919 5919 5920 5921 5919 5918 5918 5918 5918 5918 5918 5918 5918 5917 5917 5916 5916 5915 5914 5913 5912 5911 5910 5909 5909 5908 5907 5905 5904 5903 5901 5900 5898
5895 5897 5899 5902 5904 5907 5908 5911 5912 5913 5915 5917 5917 5918 5919 5917 5916 5916 5916 5916 5916 5916 5916 5915 5915 5915 5914 5914 5913 5913 5912 5911 5910 5909 5908 5907 5906 5905 5903 5902 5901 5899 5898 5896
5891 5893 5895 5898 5901 5903 5905 5909 5911 5913 5914 5915 5914 5914 5915 5914 5913 5913 5913 5913 5913 5913 5913 5913 5913 5912 5912 5911 5911 5911 5910 5909 5908 5907 5906 5905 5904 5902 5901 5900 5898 5897 5895 5894
5888 5890 5892 5894 5897 5899 5902 5905 5909 5911 5912 5913 5911 5911 5912 5911 5910 5910 5910 5910 5910 5910 5910 5910 5910 5910 5909 5909 5908 5908 5907 5906 5905 5904 5903 5902 5901 5900 5899 5897 5896 5894 5892 5891
5884 5887 5888 5890 5892 5895 5898 5900 5904 5907 5907 5908 5908 5908 5908 5907 5907 5907 5907 5907 5907 5907 5907 5907 5907 5906 5906 5906 5905 5905 5904 5903 5902 5901 5900 5899 5898 5897 5896 5894 5893 5891 5889 5887
5879 5882 5884 5886 5888 5890 5893 5896 5899 5901 5902 5904 5905 5904 5905 5904 5904 5904 5904 5904 5904 5904 5904 5904 5903 5903 5903 5902 5901 5901 5900 5899 5898 5898 5897 5896 5895 5893 5892 5890 5889 5887 5885 5883
5874 5878 5880 5882 5883 5887 5889 5891 5893 5896 5898 5900 5902 5904 5900 5900 5900 5900 5900 5900 5900 5900 5900 5900 5899 5899 5898 5898 5897 5897 5896 5895 5894 5893 5892 5892 5890 5889 5888 5886 5884 5882 5880 5878
5869 5873 5875 5877 5879 5881 5883 5886 5889 5892 5892 5894 5896 5900 5895 5896 5896 5896 5896 5896 5895 5895 5896 5895 5895 5895 5894 5893 5893 5892 5891 5890 5889 5888 5888 5887 5886 5884 5883 5881 5879 5877 5874 5872
5864 5868 5871 5873 5876 5876 5878 5880 5883 5885 5887 5888 5891 5894 5890 5890 5890 5891 5891 5891 5891 5891 5891 5891 5890 5890 5889 5889 5888 5887 5886 5885 5884 5883 5882 5881 5880 5879 5877 5876 5874 5872 5869 5867
5859 5863 5867 5871 5871 5872 5873 5875 5876 5879 5881 5883 5884 5885 5884 5884 5884 5885 5886 5885 5886 5886 5886 5886 5885 5885 5884 5883 5882 5881 5881 5880 5878 5877 5876 5875 5874 5873 5872 5870 5868 5866 5864 5862
5854 5857 5859 5862 5864 5866 5867 5869 5870 5872 5874 5876 5878 5878 5878 5877 5878 5879 5879 5880 5880 5880 5880 5880 5879 5878 5878 5877 5876 5875 5874 5873 5872 5871 5870 5869 5868 5866 5865 5863 5862 5860 5858 5856
5848 5851 5853 5855 5857 5859 5860 5862 5864 5865 5867 5868 5869 5870 5871 5871 5871 5872 5872 5873 5873 5874 5873 5873 5873 5872 5871 5870 5869 5868 5867 5866 5865 5865 5864 5862 5861 5860 5858 5857 5855 5853 5851 5849
5841 5844 5847 5850 5851 5852 5854 5856 5857 5859 5860 5861 5862 5864 5864 5864 5864 5865 5865 5866 5866 5866 5866 5866 5866 5865 5864 5863 5862 5861 5860 5859 5859 5858 5857 5855 5854 5852 5851 5849 5848 5846 5844 5842
5834 5837 5840 5843 5844 5845 5850 5849 5850 5852 5853 5854 5854 5856 5857 5857 5858 5858 5858 5858 5858 5858 5858 5858 5858 5857 5856 5855 5854 5853 5853 5852 5851 5850 5849 5848 5846 5845 5843 5841 5840 5838 5836 5834
5826 5829 5832 5835 5837 5838 5840 5841 5843 5844 5845 5846 5847 5848 5849 5849 5850 5850 5851 5851 5851 5851 5850 5850 5850 5849 5848 5847 5846 5845 5844 5844 5843 5842 5841 5840 5839 5837 5835 5833 5832 5830 5828 5826
5818 5821 5825 5827 5829 5832 5834 5834 5835 5838 5838 5839 5840 5841 5841 5841 5842 5843 5843 5843 5843 5843 5842 5842 5842 5841 5840 5839 5838 5837 5836 5835 5835 5834 5833 5832 5830 5828 5827 5825 5823 5821 5819 5818
5811 5813 5815 5818 5820 5823 5824 5826 5828 5831 5831 5831 5832 5833 5833 5834 5835 5835 5835 5835 5835 5835 5834 5834 5833 5833 5832 5831 5830 5828 5828 5827 5826 5825 5824 5823 5821 5819 5818 5815 5814 5812 5811 5809
5802 5805 5807 5810 5813 5816 5815 5817 5820 5821 5822 5823 5824 5825 5825 5826 5826 5827 5827 5827 5827 5826 5826 5826 5825 5824 5823 5822 5821 5820 5819 5818 5817 5816 5815 5813 5812 5810 5808 5806 5805 5803 5802 5800
5793 5796 5798 5802 5805 5805 5807 5808 5810 5812 5814 5814 5815 5816 5817 5817 5818 5818 5818 5818 5818 5818 5818 5818 5817 5816 5815 5814 5813 5812 5810 5809 5808 5807 5805 5804 5802 5801 5799 5797 5795 5794 5792 5791
5784 5787 5789 5791 5793 5795 5797 5799 5801 5803 5805 5806 5807 5808 5808 5809 5809 5809 5809 5809 5809 5809 5809 5809 5808 5807 5806 5805 5804 5802 5801 5799 5798 5797 5795 5794 5793 5791 5789 5788 5786 5784 5782 5781
5775 5778 5780 5782 5784 5787 5789 5791 5793 5794 5796 5797 5798 5799 5799 5800 5800 5800 5801 5801 5801 5801 5801 5800 5799 5798 5797 5796 5795 5793 5791 5790 5789 5787 5786 5784 5782 5780 5779 5777 5776 5774 5773 5771
5767 5770 5772 5774 5776 5778 5780 5782 5784 5785 5786 5787 5788 5789 5790 5791 5791 5791 5792 5792 5791 5791 5791 5791 5790 5789 5788 5787 5785 5784 5782 5781 5779 5777 5775 5774 5772 5770 5769 5767 5765 5763 5762 5761